Home > Time Zones > World Clock > Weather > Libya > Sabha > Past weeks

Flag for Libya Weather past 2 weeks in Sabha, Libya

Now
39 °F

Clear.


Feels Like: 39 °F
Forecast: 34 / 63 °F
Wind: 2 mph from Northwest

Location: In Amenas

Current Time: Jan 26, 2015 at 12:53:33 AM

Latest Report: Jan 26, 2015 at 12:00 AM


Visibility: 10 mi

Pressure: 30.09 "Hg

Humidity: 28%

Dew point: 9 °F

Location of SabhaLocation

Historic Weather in Sabha — Graph

°F

Sabha temperature yesterday

Maximum temperature yesterday: 57 °F (at 5:00 PM)
Minimum temperature yesterday: 32 °F (at 6:00 AM)
Average temperature yesterday: 43 °F

Past Weeks' High & Low Weather Summary

 TemperatureHumidityPressure
High75 °F (Jan 16, 4:00 PM)87% (Jan 13, 8:00 AM)30.45 "Hg (Jan 13, 8:00 AM)
Low32 °F (Jan 25, 6:00 AM)10% (Jan 16, 4:00 PM)29.80 "Hg (Jan 19, 5:00 PM)
Average52 °F35%30.13 "Hg
* Reported Midnight between Jan 10 and Jan 11 — Midnight between Jan 25 and Jan 26, Sabha, Weather by CustomWeather, © 2014

Note: Actual official high and low records may vary slightly from our data, if they occured in-between our weather recording intervals... More about our weather records

Advertising

Sabha weather history for previous 24 hours

 ConditionsComfort  
Time TempWeatherWind HumidityBarometerVisibility
12:00 AM
Jan 26
39 °FClear.2 mph28%30.09 "Hg10 mi
11:00 PM
Jan 25
43 °FClear.2 mph31%30.09 "Hg10 mi
10:00 PM45 °FClear.5 mph29%30.09 "Hg10 mi
9:00 PM46 °FClear.6 mph27%30.09 "Hg10 mi
8:00 PM48 °FClear.5 mph27%30.09 "Hg10 mi
7:00 PM52 °FPassing clouds.7 mph24%30.07 "HgN/A
6:00 PM55 °FPassing clouds.5 mph21%30.07 "HgN/A
5:00 PM57 °FSunny.8 mph23%30.07 "Hg10 mi
4:00 PM55 °FSunny.7 mph24%30.07 "Hg10 mi
3:00 PM55 °FSunny.8 mph26%30.09 "Hg10 mi
2:00 PM52 °FSunny.6 mph30%30.09 "Hg10 mi
1:00 PM50 °FSunny.8 mph35%30.12 "Hg10 mi
12:00 PM48 °FSunny.6 mph40%30.15 "Hg10 mi
11:00 AM41 °FSunny.5 mph42%30.15 "Hg10 mi
10:00 AM37 °FSunny.No wind45%30.15 "Hg10 mi
9:00 AM32 °FSunny.3 mph51%30.15 "Hg10 mi
8:00 AM32 °FSunny.6 mph51%30.12 "Hg10 mi
7:00 AM32 °FClear.5 mph51%30.09 "Hg10 mi
6:00 AM32 °FClear.No wind55%30.09 "Hg10 mi
5:00 AM34 °FClear.No wind51%30.12 "Hg10 mi
4:00 AM34 °FClear.6 mph48%30.12 "Hg10 mi
3:00 AM36 °FClear.7 mph48%30.12 "Hg10 mi
2:00 AM37 °FClear.9 mph45%30.12 "Hg10 mi
1:00 AM37 °FClear.9 mph45%30.12 "Hg10 mi
12:00 AM39 °FClear.8 mph42%30.12 "Hg10 mi
Weather by CustomWeather, © 2014

See weather overviewHow to use our weather pages